Regional Weather Roundup
Issued by NWS

Home | Current Version | Previous Version | Text Only | Print | Product List | Glossary On
Versions: 1 2 3 4 5 6 7 8 9 10 11 12 13 14 15 16 17 18 19 20 21 22 23 24 25 26 27 28 29 30 31 32 33 34 35 36 37 38 39 40 41 42 43 44 45 46 47 48 49 50
000
ASCA42 TJSJ 260811
RWRPR
PUERTO RICO/U.S. VIRGIN ISLANDS HOURLY WEATHER ROUNDUP
NATIONAL WEATHER SERVICE SAN JUAN PR
400 AM AST SUN OCT 26 2014

PRZ001-004-260900-
PUERTO RICO

CITY           SKY/WX    TMP DP  RH WIND       PRES   REMARKS
SAN JUAN LMM   PTCLDY    81  75  83 CALM      29.84F
PONCE          PTCLDY    77  73  88 NE6       29.83F
CEIBA          CLEAR     77  73  88 NW5       29.86F
$$

PRZ006-007-260900-
U.S. VIRGIN ISLANDS

CITY           SKY/WX    TMP DP  RH WIND       PRES   REMARKS
CHARLOTTE AMA  PTCLDY    81  73  78 E6        29.83F
$$

HOURLY WEATHER ROUNDUP FOR THE NEWS MEDIA

CITY           SKY/WX    TMP DP  RH WIND       PRES   REMARKS
MIAMI          PTCLDY    71  64  78 N9        29.90F
ORLANDO        CLEAR     61  57  87 CALM      29.96F
NEW YORK       PTCLDY    55  47  74 W8        29.56F
NEWARK         PTCLDY    57  45  64 W7        29.56S
CHICAGO        CLEAR     48  29  47 NW9       30.00R
HARTFORD       CLOUDY    57  46  66 W7        29.46F
BOSTON         CLOUDY    55  44  66 W14       29.45F
DALLAS         CLEAR     73  60  63 SW5       30.02S
PHILADELPHIA   PTCLDY    57  49  74 W9        29.61S



USA.gov is the U.S. government's official web portal to all federal, state and local government web resources and services.